Time,TemperatureF,DewpointF,PressureIn,WindDirection,WindDirectionDegrees,WindSpeedMPH,WindSpeedGustMPH,Humidity,HourlyPrecipIn,Conditions,Clouds,dailyrainin,SoftwareType,DateUTC
2013-02-08 06:33:00,9.3,-11.1,29.82,East,90,0.9,0.9,38,0.00,,OVC060,0.00,VWS V14.01,2013-02-08 11:33:00,
2013-02-08 06:34:00,9.3,-11.1,29.82,ESE,112,0.0,0.9,38,0.00,,OVC060,0.00,VWS V14.01,2013-02-08 11:34:00,
2013-02-08 06:35:00,9.3,-11.1,29.82,ESE,112,0.0,0.0,38,0.00,,OVC060,0.00,VWS V14.01,2013-02-08 11:35:00,
2013-02-08 06:36:00,9.3,-11.1,29.82,ESE,112,0.0,0.0,38,0.00,,OVC060,0.00,VWS V14.01,2013-02-08 11:36:00,
2013-02-08 06:37:00,9.3,-11.1,29.82,ESE,112,0.0,0.0,38,0.00,,OVC060,0.00,VWS V14.01,2013-02-08 11:37:00,
2013-02-08 06:38:00,9.5,-11.0,29.82,ESE,112,1.1,1.1,38,0.00,,OVC060,0.00,VWS V14.01,2013-02-08 11:38:00,
2013-02-08 15:49:00,15.4,6.8,29.59,NNE,22,2.5,2.5,68,0.00,,OVC060,0.00,VWS V14.01,2013-02-08 20:49:00,
2013-02-08 15:54:00,15.4,6.8,29.59,East,90,1.1,1.6,68,0.00,,OVC060,0.00,VWS V14.01,2013-02-08 20:54:00,
2013-02-08 15:59:00,15.4,7.1,29.59,SE,135,1.3,1.3,69,0.00,,OVC060,0.00,VWS V14.01,2013-02-08 20:59:00,
2013-02-08 16:04:00,15.4,7.1,29.59,ENE,68,0.9,0.9,69,0.00,,OVC060,0.00,VWS V14.01,2013-02-08 21:04:00,
2013-02-08 16:09:00,15.3,7.2,29.59,SSE,158,0.0,0.9,70,0.00,,OVC060,0.00,VWS V14.01,2013-02-08 21:09:00,
2013-02-08 16:14:00,15.3,7.2,29.59,ENE,68,1.6,1.6,70,0.00,,OVC060,0.00,VWS V14.01,2013-02-08 21:14:00,
2013-02-08 16:19:00,15.3,7.2,29.59,ENE,68,0.0,0.0,70,0.00,,OVC060,0.00,VWS V14.01,2013-02-08 21:19:00,
2013-02-08 16:24:00,15.1,7.1,29.59,NE,45,0.0,0.0,70,0.00,,OVC060,0.00,VWS V14.01,2013-02-08 21:24:00,
2013-02-08 16:29:00,15.1,7.1,29.59,NE,45,2.9,2.9,70,0.00,,OVC060,0.00,VWS V14.01,2013-02-08 21:29:00,
2013-02-08 16:34:00,15.1,7.4,29.59,SSE,158,1.1,1.1,71,0.00,,OVC060,0.00,VWS V14.01,2013-02-08 21:34:00,
2013-02-08 16:39:00,15.1,7.1,29.59,NNE,22,0.0,0.0,70,0.00,,OVC060,0.00,VWS V14.01,2013-02-08 21:39:00,
2013-02-08 16:44:00,15.1,7.1,29.59,NNE,22,0.0,0.0,70,0.00,,OVC060,0.00,VWS V14.01,2013-02-08 21:44:00,
2013-02-08 16:49:00,15.1,7.7,29.56,ENE,68,2.0,2.7,72,0.00,,OVC060,0.00,VWS V14.01,2013-02-08 21:49:00,
2013-02-08 16:54:00,15.1,7.4,29.56,ENE,68,6.3,6.3,71,0.00,,OVC060,0.00,VWS V14.01,2013-02-08 21:54:00,
2013-02-08 16:59:00,15.1,7.4,29.56,ENE,68,2.2,2.2,71,0.00,,OVC060,0.00,VWS V14.01,2013-02-08 21:59:00,
2013-02-08 17:04:00,14.9,7.2,29.56,ESE,112,1.1,2.9,71,0.00,,OVC060,0.00,VWS V14.01,2013-02-08 22:04:00,
2013-02-08 17:09:00,14.9,7.2,29.56,NNW,338,1.6,1.6,71,0.00,,OVC060,0.00,VWS V14.01,2013-02-08 22:09:00,
2013-02-08 17:14:00,14.9,7.5,29.56,ESE,112,2.5,2.5,72,0.00,,OVC060,0.00,VWS V14.01,2013-02-08 22:14:00,
2013-02-08 17:19:00,14.9,7.5,29.56,SE,135,4.0,4.0,72,0.00,,OVC060,0.00,VWS V14.01,2013-02-08 22:19:00,
2013-02-08 17:24:00,14.9,7.2,29.56,West,270,0.0,0.0,71,0.00,,OVC060,0.00,VWS V14.01,2013-02-08 22:24:00,
2013-02-08 17:29:00,14.9,7.2,29.56,ESE,112,1.6,1.6,71,0.00,,OVC060,0.00,VWS V14.01,2013-02-08 22:29:00,
2013-02-08 17:34:00,14.9,7.2,29.56,ESE,112,1.3,2.9,71,0.00,,OVC060,0.00,VWS V14.01,2013-02-08 22:34:00,
2013-02-08 17:39:00,14.9,7.5,29.56,West,270,2.7,2.7,72,0.00,,OVC060,0.00,VWS V14.01,2013-02-08 22:39:00,
2013-02-08 17:44:00,14.9,7.5,29.56,ENE,68,0.0,0.0,72,0.00,,OVC060,0.00,VWS V14.01,2013-02-08 22:44:00,
2013-02-08 17:49:00,14.9,7.5,29.56,WSW,248,1.1,1.1,72,0.00,,OVC060,0.00,VWS V14.01,2013-02-08 22:49:00,
2013-02-08 17:54:00,14.9,7.8,29.56,WNW,292,2.0,2.0,73,0.00,,OVC060,0.00,VWS V14.01,2013-02-08 22:54:00,
2013-02-08 17:59:00,14.9,7.5,29.56,ENE,68,2.2,2.9,72,0.00,,OVC060,0.00,VWS V14.01,2013-02-08 22:59:00,
2013-02-08 18:04:00,15.1,7.7,29.53,NNE,22,2.5,2.5,72,0.00,,OVC060,0.00,VWS V14.01,2013-02-08 23:04:00,
2013-02-08 18:09:00,15.1,7.7,29.53,ESE,112,0.9,0.9,72,0.00,,OVC060,0.00,VWS V14.01,2013-02-08 23:09:00,
2013-02-08 18:14:00,15.1,7.7,29.53,ENE,68,1.1,1.1,72,0.00,,OVC060,0.00,VWS V14.01,2013-02-08 23:14:00,
2013-02-08 18:19:00,15.1,7.4,29.53,SSE,158,0.9,0.9,71,0.00,,OVC060,0.00,VWS V14.01,2013-02-08 23:19:00,
2013-02-08 18:24:00,15.1,7.4,29.53,NE,45,1.3,2.5,71,0.00,,OVC060,0.00,VWS V14.01,2013-02-08 23:24:00,
2013-02-08 18:29:00,15.1,7.4,29.53,SSE,158,2.0,2.0,71,0.00,,OVC060,0.00,VWS V14.01,2013-02-08 23:29:00,
2013-02-08 18:34:00,15.3,7.6,29.50,East,90,1.1,1.1,71,0.00,,OVC060,0.00,VWS V14.01,2013-02-08 23:34:00,
2013-02-08 18:39:00,15.3,7.9,29.50,ESE,112,2.5,2.9,72,0.00,,OVC060,0.00,VWS V14.01,2013-02-08 23:39:00,
2013-02-08 18:44:00,15.3,8.2,29.50,WNW,292,0.9,2.7,73,0.00,,OVC060,0.00,VWS V14.01,2013-02-08 23:44:00,
2013-02-08 18:49:00,15.3,7.9,29.50,ENE,68,1.3,1.3,72,0.00,,OVC060,0.00,VWS V14.01,2013-02-08 23:49:00,
2013-02-08 18:54:00,15.3,8.2,29.50,ENE,68,4.9,4.9,73,0.00,,OVC060,0.00,VWS V14.01,2013-02-08 23:54:00,
2013-02-08 18:59:00,15.3,8.2,29.50,West,270,0.0,0.0,73,0.00,,OVC060,0.00,VWS V14.01,2013-02-08 23:59:00,
2013-02-08 19:04:00,15.3,8.2,29.47,NE,45,0.0,2.5,73,0.00,,OVC060,0.00,VWS V14.01,2013-02-09 00:04:00,
2013-02-08 19:09:00,15.3,8.2,29.47,ESE,112,1.3,1.3,73,0.00,,OVC060,0.00,VWS V14.01,2013-02-09 00:09:00,
2013-02-08 19:14:00,15.3,8.2,29.47,WSW,248,0.0,2.2,73,0.00,,OVC060,0.00,VWS V14.01,2013-02-09 00:14:00,
2013-02-08 19:19:00,15.3,8.2,29.47,ENE,68,1.3,1.3,73,0.00,,OVC060,0.00,VWS V14.01,2013-02-09 00:19:00,
2013-02-08 19:24:00,15.3,8.5,29.47,NNE,22,2.5,2.5,74,0.00,,OVC060,0.00,VWS V14.01,2013-02-09 00:24:00,
2013-02-08 19:29:00,15.3,8.5,29.47,ENE,68,2.7,2.7,74,0.00,,OVC060,0.00,VWS V14.01,2013-02-09 00:29:00,
2013-02-08 19:34:00,15.3,8.5,29.47,SSE,158,3.8,3.8,74,0.00,,OVC060,0.00,VWS V14.01,2013-02-09 00:34:00,
2013-02-08 19:39:00,15.3,8.5,29.47,ENE,68,0.0,0.0,74,0.00,,OVC060,0.00,VWS V14.01,2013-02-09 00:39:00,
2013-02-08 19:44:00,15.3,8.5,29.47,East,90,2.7,2.7,74,0.00,,OVC060,0.00,VWS V14.01,2013-02-09 00:44:00,
2013-02-08 19:49:00,15.1,8.0,29.47,NNE,22,1.6,1.6,73,0.00,,OVC060,0.00,VWS V14.01,2013-02-09 00:49:00,
2013-02-08 19:54:00,14.9,7.8,29.47,South,180,2.7,2.7,73,0.00,,OVC060,0.00,VWS V14.01,2013-02-09 00:54:00,
2013-02-08 19:59:00,14.9,7.8,29.47,NE,45,1.6,1.6,73,0.00,,OVC060,0.00,VWS V14.01,2013-02-09 00:59:00,
2013-02-08 20:04:00,14.9,7.8,29.44,SE,135,1.1,2.9,73,0.00,,OVC060,0.00,VWS V14.01,2013-02-09 01:04:00,
2013-02-08 20:09:00,14.7,7.7,29.44,NW,315,1.6,1.6,73,0.00,,OVC060,0.00,VWS V14.01,2013-02-09 01:09:00,
2013-02-08 20:14:00,14.7,7.9,29.44,ESE,112,2.0,2.0,74,0.00,,OVC060,0.00,VWS V14.01,2013-02-09 01:14:00,
2013-02-08 20:19:00,14.5,7.8,29.44,NNW,338,4.0,4.0,74,0.00,,OVC060,0.00,VWS V14.01,2013-02-09 01:19:00,
2013-02-08 20:24:00,14.5,7.8,29.44,NNE,22,2.0,3.1,74,0.00,,OVC060,0.00,VWS V14.01,2013-02-09 01:24:00,
2013-02-08 20:29:00,14.5,7.8,29.44,ENE,68,2.0,2.0,74,0.00,,OVC060,0.00,VWS V14.01,2013-02-09 01:29:00,
2013-02-08 20:34:00,14.5,8.1,29.44,NE,45,2.0,3.8,75,0.00,,OVC060,0.00,VWS V14.01,2013-02-09 01:34:00,
2013-02-08 20:39:00,14.5,7.8,29.44,ENE,68,3.8,3.8,74,0.00,,OVC060,0.00,VWS V14.01,2013-02-09 01:39:00,
2013-02-08 20:44:00,14.5,7.8,29.44,NE,45,2.5,2.5,74,0.00,,OVC060,0.00,VWS V14.01,2013-02-09 01:44:00,
2013-02-08 20:49:00,14.5,7.8,29.44,NNW,338,3.4,3.8,74,0.00,,OVC060,0.00,VWS V14.01,2013-02-09 01:49:00,
2013-02-08 20:54:00,14.4,7.6,29.44,ENE,68,1.6,3.4,74,0.00,,OVC060,0.00,VWS V14.01,2013-02-09 01:54:00,
2013-02-08 20:59:00,14.4,7.9,29.44,ENE,68,2.0,2.2,75,0.00,,OVC060,0.00,VWS V14.01,2013-02-09 01:59:00,
2013-02-08 21:04:00,14.4,7.9,29.44,ENE,68,2.0,2.0,75,0.00,,OVC060,0.00,VWS V14.01,2013-02-09 02:04:00,
2013-02-08 21:09:00,14.2,7.7,29.44,South,180,0.9,1.6,75,0.00,,OVC060,0.00,VWS V14.01,2013-02-09 02:09:00,
2013-02-08 21:14:00,14.2,7.7,29.44,SE,135,0.9,2.9,75,0.00,,OVC060,0.00,VWS V14.01,2013-02-09 02:14:00,
2013-02-08 21:19:00,14.2,7.4,29.41,ENE,68,2.9,4.3,74,0.00,,OVC060,0.00,VWS V14.01,2013-02-09 02:19:00,
2013-02-08 21:24:00,14.2,7.4,29.41,ENE,68,2.9,2.9,74,0.00,,OVC060,0.00,VWS V14.01,2013-02-09 02:24:00,
2013-02-08 21:29:00,14.2,7.4,29.41,East,90,3.6,3.6,74,0.00,,OVC060,0.00,VWS V14.01,2013-02-09 02:29:00,
2013-02-08 21:34:00,14.2,7.4,29.38,NE,45,0.9,0.9,74,0.00,,OVC060,0.00,VWS V14.01,2013-02-09 02:34:00,
2013-02-08 21:39:00,14.2,7.4,29.38,ENE,68,2.7,2.7,74,0.00,,OVC060,0.00,VWS V14.01,2013-02-09 02:39:00,
2013-02-08 21:44:00,14.2,7.4,29.38,ENE,68,1.1,2.7,74,0.00,,OVC060,0.00,VWS V14.01,2013-02-09 02:44:00,
2013-02-08 21:49:00,14.2,7.7,29.38,NE,45,0.9,0.9,75,0.00,,OVC060,0.00,VWS V14.01,2013-02-09 02:49:00,
2013-02-08 21:54:00,14.2,7.7,29.38,WNW,292,0.0,3.1,75,0.00,,OVC060,0.00,VWS V14.01,2013-02-09 02:54:00,
2013-02-08 21:59:00,14.2,7.7,29.38,WSW,248,0.9,2.9,75,0.00,,OVC060,0.00,VWS V14.01,2013-02-09 02:59:00,
2013-02-08 22:04:00,14.4,8.2,29.35,WNW,292,3.4,3.8,76,0.00,,OVC060,0.00,VWS V14.01,2013-02-09 03:04:00,
2013-02-08 22:09:00,14.4,7.9,29.35,NNE,22,1.6,1.6,75,0.00,,OVC060,0.00,VWS V14.01,2013-02-09 03:09:00,
2013-02-08 22:14:00,14.2,8.0,29.35,ENE,68,4.3,4.3,76,0.00,,OVC060,0.00,VWS V14.01,2013-02-09 03:14:00,
2013-02-08 22:19:00,14.2,8.0,29.35,SSE,158,1.1,2.0,76,0.00,,OVC060,0.00,VWS V14.01,2013-02-09 03:19:00,
2013-02-08 22:24:00,14.4,8.2,29.35,NNE,22,2.0,2.0,76,0.00,,OVC060,0.00,VWS V14.01,2013-02-09 03:24:00,
2013-02-08 22:29:00,14.4,8.2,29.35,ESE,112,1.6,2.9,76,0.00,,OVC060,0.00,VWS V14.01,2013-02-09 03:29:00,
2013-02-08 22:34:00,14.4,8.2,29.32,ENE,68,3.8,7.6,76,0.00,,OVC060,0.00,VWS V14.01,2013-02-09 03:34:00,
2013-02-08 22:39:00,14.4,8.2,29.32,ENE,68,3.6,3.6,76,0.00,,OVC060,0.00,VWS V14.01,2013-02-09 03:39:00,
2013-02-08 22:44:00,14.4,8.2,29.32,ESE,112,2.5,2.5,76,0.00,,OVC060,0.00,VWS V14.01,2013-02-09 03:44:00,
2013-02-08 22:49:00,14.4,7.9,29.32,NNE,22,2.0,2.7,75,0.00,,OVC060,0.00,VWS V14.01,2013-02-09 03:49:00,
2013-02-08 22:54:00,14.4,7.9,29.32,NW,315,1.6,2.5,75,0.00,,OVC060,0.00,VWS V14.01,2013-02-09 03:54:00,
2013-02-08 22:59:00,14.4,7.9,29.32,ENE,68,2.7,2.7,75,0.00,,OVC060,0.00,VWS V14.01,2013-02-09 03:59:00,
2013-02-08 23:04:00,14.4,7.9,29.32,ESE,112,3.6,3.6,75,0.00,,OVC060,0.00,VWS V14.01,2013-02-09 04:04:00,
2013-02-08 23:09:00,14.5,8.1,29.32,ENE,68,1.3,3.4,75,0.00,,OVC060,0.00,VWS V14.01,2013-02-09 04:09:00,
2013-02-08 23:14:00,14.4,7.9,29.32,ESE,112,1.6,2.9,75,0.00,,OVC060,0.00,VWS V14.01,2013-02-09 04:14:00,
2013-02-08 23:19:00,14.4,8.2,29.29,ENE,68,2.9,2.9,76,0.00,,OVC060,0.00,VWS V14.01,2013-02-09 04:19:00,
2013-02-08 23:24:00,14.4,8.2,29.29,NNE,22,2.9,2.9,76,0.00,,OVC060,0.00,VWS V14.01,2013-02-09 04:24:00,
2013-02-08 23:29:00,14.4,8.2,29.29,NE,45,1.6,1.6,76,0.00,,OVC060,0.00,VWS V14.01,2013-02-09 04:29:00,
2013-02-08 23:34:00,14.4,8.2,29.29,SSE,158,2.5,2.5,76,0.00,,OVC060,0.00,VWS V14.01,2013-02-09 04:34:00,
2013-02-08 23:39:00,14.4,8.2,29.29,WNW,292,4.3,4.3,76,0.00,,OVC060,0.00,VWS V14.01,2013-02-09 04:39:00,
2013-02-08 23:44:00,14.4,8.2,29.29,North,0,2.0,2.7,76,0.00,,OVC060,0.00,VWS V14.01,2013-02-09 04:44:00,
2013-02-08 23:49:00,14.4,8.5,29.29,ENE,68,3.1,3.1,77,0.00,,OVC060,0.00,VWS V14.01,2013-02-09 04:49:00,
2013-02-08 23:54:00,14.4,8.5,29.29,ESE,112,1.6,2.2,77,0.00,,OVC060,0.00,VWS V14.01,2013-02-09 04:54:00,
2013-02-08 23:59:00,14.4,8.5,29.29,SSE,158,2.2,2.7,77,0.00,,OVC060,0.00,VWS V14.01,2013-02-09 04:59:00,